Overview Statistics Trail Chart Weather Telemetry Raw packets
 

This is the latest recevied weather packets stored in our database for station/object KQ7A. If no packets are shown the sender has not sent any weather packets the latest 10 day(s).

<< 82 83 84 85 86 87 88 >>
Time Temp. Humidity Pressure Rain* Wind** Luminosity Snow
1788082383 10.56° C 57% 1018.9 hPa 0 mm - 0 W/m² -
1788082083 11.11° C 56% 1018.5 hPa 0 mm - 0 W/m² -
1788081779 10° C 54% 1018.8 hPa 0 mm - 0 W/m² -
1788081475 10.56° C 55% 1018.8 hPa 0 mm - 0 W/m² -
1788081175 9.44° C 58% 1018.9 hPa 0 mm - 0 W/m² -
1788080874 9.44° C 62% 1019.1 hPa 0 mm - 0 W/m² -
1788080570 8.89° C 63% 1019.1 hPa 0 mm - 0 W/m² -
1788080269 9.44° C 64% 1018.9 hPa 0 mm - 0 W/m² -
1788079965 10° C 63% 1019 hPa 0 mm - 0 W/m² -
1788079660 10.56° C 57% 1018.9 hPa 0 mm - 0 W/m² -
1788079355 11.67° C 54% 1018.9 hPa 0 mm - 0 W/m² -
1788079050 11.67° C 50% 1018.8 hPa 0 mm - 0 W/m² -
1788078746 11.67° C 49% 1018.8 hPa 0 mm - 0 W/m² -
1788078446 11.67° C 50% 1018.8 hPa 0 mm - 0 W/m² -
1788078141 11.11° C 54% 1018.9 hPa 0 mm - 0 W/m² -
1788077837 11.11° C 53% 1019 hPa 0 mm - 0 W/m² -
1788077536 10.56° C 57% 1019 hPa 0 mm - 0 W/m² -
1788077230 11.11° C 57% 1019 hPa 0 mm - 0 W/m² -
1788076927 11.67° C 54% 1018.8 hPa 0 mm - 0 W/m² -
1788076625 12.78° C 49% 1018.9 hPa 0 mm - 0 W/m² -
1788076322 13.89° C 47% 1018.5 hPa 0 mm - 0 W/m² -
1788076017 15° C 42% 1018.8 hPa 0 mm - 0 W/m² -
1788075713 14.44° C 42% 1018.6 hPa 0 mm - 0 W/m² -
1788075409 12.78° C 47% 1018.6 hPa 0 mm - 0 W/m² -
1788075104 12.78° C 45% 1018.8 hPa 0 mm - 0 W/m² -

* Rain latest hour (hover to see other rain measurements)
** Current wind speed in m/s (hover to see current wind gust speed)